Home   Weather   Khan Yunis   Past weeks

Flag for Palestinian Territories Past Weather in Khan Yunis, Gaza Strip, Palestinian Territories — Yesterday and Last 2 Weeks

Now
66 °F

Sunny.


Feels Like: 66 °F
Forecast: 62 / 70 °F
Wind: 2 mph from North

Location: Ben Gurion International Airport

Current Time: Dec 5, 2016 at 10:32:59 am

Latest Report: Dec 5, 2016 at 10:20 am


Visibility: 10 mi

Pressure: 30.15 "Hg

Humidity: 49%

Dew Point: 46 °F

Location of Khan YunisLocation

Past Weather in Khan Yunis — Graph

°F

Khan Yunis Temperature Yesterday

Maximum temperature yesterday: 72 °F (at 11:20 am)
Minimum temperature yesterday: 50 °F (at 6:50 am)
Average temperature yesterday: 61 °F

High & Low Weather Summary for the Past Weeks

 TemperatureHumidityPressure
High84 °F (Nov 20, 12:50 pm)94% (Dec 2, 12:20 am)30.30 "Hg (Dec 2, 12:20 am)
Low39 °F (Nov 26, 4:20 am)4% (Nov 24, 2:20 pm)29.74 "Hg (Dec 1, 1:50 pm)
Average64 °F37%30.02 "Hg
* Reported Nov 20 9:20 am — Dec 5 9:20 am, Khan Yunis, Weather by CustomWeather, © 2016

Note: Actual official high and low records may vary slightly from our data, if they occured in-between our weather recording intervals... More about our weather records

Advertising

Khan Yunis Weather History for the Previous 24 Hours

Scroll right to see more
 ConditionsComfort  
Time TempWeatherWind HumidityBarometerVisibility
9:20 am
Mon, Dec 5
61 °FSunny.2 mph59%30.18 "Hg10 mi
8:50 am59 °FSunny.2 mph63%30.15 "Hg10 mi
8:20 am55 °FSunny.2 mph72%30.15 "Hg10 mi
7:50 am52 °FSunny.5 mph82%30.15 "Hg10 mi
7:20 am50 °FSunny.2 mph82%30.15 "Hg10 mi
6:50 am48 °FSunny.5 mph87%30.15 "Hg10 mi
6:20 am50 °FClear.5 mph82%30.15 "Hg10 mi
5:50 am50 °FClear.3 mph82%30.12 "Hg10 mi
5:20 am50 °FClear.6 mph82%30.12 "Hg10 mi
4:50 am50 °FClear.2 mph82%30.12 "Hg10 mi
4:20 am50 °FClear.2 mph82%30.12 "Hg10 mi
3:50 am52 °FClear.5 mph82%30.12 "Hg10 mi
3:20 am50 °FClear.1 mph88%30.12 "Hg10 mi
2:50 am52 °FClear.3 mph82%30.12 "Hg10 mi
2:20 am54 °FClear.3 mph77%30.12 "Hg10 mi
1:50 am52 °FClear.2 mph82%30.12 "Hg10 mi
1:20 am52 °FClear.1 mph82%30.12 "Hg10 mi
12:50 am55 °FClear.3 mph63%30.12 "Hg10 mi
12:20 am54 °FClear.3 mph82%30.15 "Hg10 mi
11:50 pm
Sun, Dec 4
55 °FClear.1 mph72%30.15 "Hg10 mi
11:20 pm55 °FClear.3 mph72%30.15 "Hg10 mi
10:50 pm57 °FClear.3 mph67%30.15 "Hg10 mi
10:20 pm57 °FClear.5 mph72%30.15 "Hg10 mi
9:50 pm59 °FClear.7 mph63%30.15 "Hg10 mi
9:20 pm59 °FClear.5 mph63%30.18 "Hg10 mi
8:50 pm59 °FClear.7 mph68%30.18 "Hg10 mi
8:20 pm59 °FClear.6 mph68%30.18 "Hg10 mi
7:50 pm61 °FClear.5 mph63%30.18 "Hg10 mi
7:20 pm63 °FClear.6 mph56%30.18 "Hg10 mi
6:50 pm63 °FClear.6 mph56%30.18 "Hg10 mi
6:20 pm64 °FClear.8 mph52%30.18 "Hg10 mi
5:50 pm64 °FClear.6 mph52%30.18 "Hg10 mi
5:20 pm66 °FClear.6 mph49%30.15 "Hg10 mi
4:50 pm68 °FClear.5 mph49%30.15 "Hg10 mi
4:20 pm70 °FSunny.7 mph40%30.15 "Hg10 mi
3:50 pm70 °FPassing clouds.6 mph43%30.15 "HgN/A
3:20 pm70 °FSunny.6 mph40%30.15 "Hg10 mi
2:50 pm72 °FSunny.9 mph36%30.15 "Hg10 mi
2:20 pm72 °FSunny.8 mph33%30.15 "Hg10 mi
1:50 pm70 °FSunny.8 mph35%30.15 "Hg10 mi
1:20 pm70 °FSunny.8 mph35%30.15 "Hg10 mi
12:50 pm72 °FSunny.8 mph33%30.18 "Hg10 mi
12:20 pm70 °FSunny.7 mph35%30.18 "Hg10 mi
11:50 am70 °FSunny.10 mph38%30.18 "Hg10 mi
11:20 am72 °FSunny.2 mph36%30.21 "Hg10 mi
10:50 am70 °FSunny.1 mph40%30.21 "Hg10 mi
10:20 am68 °FSunny.1 mph43%30.21 "Hg10 mi
Weather by CustomWeather, © 2016

See weather overviewHow to use our weather pages